星链-4387 (STARLINK-4387 )

导读

STARLINK-4387是美国SpaceX公司星链(Starlink)计划中的一颗低轨互联网卫星,于北京时间2022年8月12日发射入轨。星链项目旨在通过构建近地轨道卫星星座,为全球偏远地区提供低延迟、高速宽带互联网服务。该卫星运行在约550公里高度的近地轨道,以约7.6km/s的速度飞行,是星链大规模组网计划中的组成单元,支撑全球卫星互联网服务的覆盖能力。

基本信息
目录编号:
53490
目录名称:
STARLINK-4387
国际标识:
2022-099AB
轨道中心:
EARTH
卫星名称:
星链-4387
卫星全名:
星链-4387 (STARLINK-4387 )
卫星状态:
在轨 (已飞行1485 天)
发射日期:
2022-08-12 UTC
国别 :
美国 (US)
星等 :
--
轨道信息
数据来源 国际轨道数据
星历时间: 2026-09-05T12:00:02+0800
6小时前
查看轨道信息
半长轴: 6731.609km
偏心率: 0.0001222
轨道倾角: 97.604°
近地点辐角 70.866°
升交点赤经 15.345°
平近点角 159.034°
近地点: 352.649km
远地点: 354.295km
周期: 91.609分钟
每日圈数: 15.718985
详细信息
固有亮度:
5
最大亮度:
2.5
卫星平台:
Starlink v1.5
覆盖范围:
全球
运营商:
太空探索技术公司
运营商所在国:
美国
制造商(研发单位):
太空探索技术公司
制造商所在国:
美国
使用方式:
暂无
卫星简介
星链(Starlink)计划是由太空探索技术公司(SpaceX)提出的一个巨型低轨卫星互联网星座项目,计划在2019年至2024年间在太空搭建由约1.2万颗卫星组成的“星链”网络,其中1584颗将部署在地球上空550千米处的近地轨道,并从2020年开始工作。该卫星仍在工作。
2D轨道图
3D轨道图
轨道高度分析图
轨道倾角分析图
轨道综合分析图
查看轨道综合分析图
交会数据列表
事件ID 空间交会对象 最接近时刻(TCA) 交会距离 交会风险概率(CRP) 交会风险指数(CRI) 操作
CDM_260905-150905-349006-288021
2026-09-05T
15:09:41+0000
1.931 km
极远距离
3.073841E-6 低风险 0.45
CDM_260905-204505-349006-331621
2026-09-05T
20:45:35+0000
2.803 km
极远距离
1.351054E-6 低风险 0.38
CDM_260907-023200-700305-349021
2026-09-07T
02:32:27+0000
2.496 km
极远距离
9.459974E-7 极低风险 0.35